Home > Weather > Gaborone > Past weeks

Flag for Botswana Weather for the Past 2 Weeks in Gaborone, Botswana

Now
79 °F

Clear.


Feels Like: 80 °F
Forecast: 67 / 89 °F
Wind: 10 mph from Northeast

Location: Seretse Khama International Airport

Current Time: Feb 6, 2016 at 1:30:13 AM

Latest Report: Feb 6, 2016 at 12:00 AM


Visibility: 10 mi

Pressure: 30.04 "Hg (26.77 "Hg at 1009m altitude)

Humidity: 51%

Dew point: 59 °F

Location of GaboroneLocation

Historic Weather in Gaborone — Graph

°F

Gaborone Temperature Yesterday

Maximum temperature yesterday: 91 °F (at 3:00 PM)
Minimum temperature yesterday: 75 °F (at 5:00 AM)
Average temperature yesterday: 83 °F

High & Low Weather Summary for the Past Weeks

 TemperatureHumidityPressure
High99 °F (Feb 3, 3:00 PM)94% (Jan 24, 2:00 AM)30.24 "Hg (Jan 24, 2:00 AM)
Low66 °F (Jan 26, 5:00 AM)13% (Jan 31, 4:00 PM)29.83 "Hg (Feb 4, 4:00 PM)
Average83 °F41%30.02 "Hg
* Reported Midnight between Jan 21 and Jan 22 — Midnight between Feb 5 and Feb 6, Gaborone, Weather by CustomWeather, © 2016

Note: Actual official high and low records may vary slightly from our data, if they occured in-between our weather recording intervals... More about our weather records

Advertising

Gaborone Weather History for the Previous 24 Hours

 ConditionsComfort  
Time TempWeatherWind HumidityBarometerVisibility
12:00 AM
Sat, Feb 6
79 °FClear.10 mph51%30.04 "Hg10 mi
11:00 PM
Fri, Feb 5
81 °FPassing clouds.8 mph48%30.04 "HgN/A
10:00 PM82 °FClear.9 mph45%30.01 "Hg10 mi
9:00 PM82 °FPassing clouds.14 mph45%29.98 "HgN/A
8:00 PM84 °FPassing clouds.16 mph43%29.95 "HgN/A
7:00 PM88 °FPassing clouds.18 mph35%29.92 "HgN/A
6:00 PM90 °FScattered clouds.17 mph31%29.89 "HgN/A
5:00 PM91 °FScattered clouds.14 mph32%29.89 "HgN/A
4:00 PM91 °FScattered clouds.12 mph32%29.89 "HgN/A
3:00 PM91 °FPassing clouds.13 mph32%29.92 "HgN/A
2:00 PM90 °FScattered clouds.10 mph36%29.98 "HgN/A
1:00 PM88 °FScattered clouds.15 mph40%30.01 "HgN/A
12:00 PM86 °FPartly sunny.15 mph46%30.01 "HgN/A
11:00 AM81 °FPartly sunny.13 mph51%30.04 "HgN/A
10:00 AM81 °FPartly sunny.15 mph54%30.04 "HgN/A
9:00 AM77 °FPartly sunny.16 mph61%30.04 "HgN/A
8:00 AM75 °FPartly sunny.18 mph65%30.04 "HgN/A
7:00 AM75 °FSunny.16 mph65%30.04 "Hg10 mi
6:00 AM75 °FSunny.14 mph61%30.01 "Hg10 mi
5:00 AM75 °FPassing clouds.10 mph47%29.98 "HgN/A
3:00 AM77 °FPassing clouds.8 mph44%29.95 "HgN/A
Weather by CustomWeather, © 2016

See weather overviewHow to use our weather pages